map of KSLH home
Great Circle Mapper logo
KSLH - Airport
Location
City:  Cheboygan, Michigan, United States
Name:Cheboygan County Airport
ICAO:KSLH
FAA:SLH

Details
Type:Airport (Airfield)
Use:Public/Civil
Latitude:4539'14"N (45.653786)
Longitude:8431'09"W (-84.519303)
Datum:WGS 1984
Elevation:640 ft (195 m)
Runways:2
Longest:4005 × 75 ft (1221 × 23 m), paved

Time
Time Zone:UTC-5 (DST-4)
Local Time:

Weather
METAR:KSLH 290815Z AUTO 24005KT 10SM SCT038 OVC048 14/13 A2990 RMK AO2 T01460132

Related Locations
Nearby:
Farthest:MGV: 11123 mi / 17900 km
Margaret River, WA, AU

Find:

   beyond  
but within

Other Information
Maps:
NOTAMs:
Links:
Sources:

  
flag of United States
flag of Michigan
  

Sectional Chart

Flight Planning
at skyvector.com

Satellite Image

Google Maps Satellite View

 

Copyright © 2004-2014 Karl L. Swartz. All rights reserved.
The Great Circle Mapper name and logo are trademarks of the Great Circle Mapper.
All other trademarks mentioned herein belong to their respective owners.
Please see credits for attibutions and further copyright information.

  Follow gcmap on Facebook Follow gcmap on Twitter

hCard Microformat

Geo Microformat